カタログに戻る

STARLINK-4131

運用中通信VLEO
NORAD 53246·PAYLOAD·🇺🇸 United States

打ち上げ Jul 24, 2022 から Cape Canaveral Space Force Station

Loading…

次のパス (今後24時間)

TLE

最新Source: CelesTrak SupGP

元期: Sep 15, 2026, 02:39 UTC

1 53246C 22086E   26258.11090278 -.00033667  00000+0 -10828-2 0  2584
2 53246  53.1576  61.9231 0001111  88.5294  95.7772 15.31714460    11

AllMySatでSTARLINK-4131をリアルタイム追跡

Download on the App Store